Location: Newark
(44.4156°N, 12.1972°E)
Time: 10:08:19
(UTC+00:00)

STARLINK-1110 - Pass Details

Date: 01 February 2020
Orbit: 348 x 351 km, 53.0° (Epoch: 22 February)

Event Time Altitude Azimuth Distance (km) Brightness Sun altitude
Rises 17:25:13 0° 302° (WNW) 2,175 7.4 -12.0°
Reaches altitude 10° 17:27:15 10° 298° (WNW) 1,328 6.3 -12.3°
Maximum altitude 17:30:10 61° 218° (SW) 405 3.2 -12.8°
Enters shadow 17:32:52 12° 137° (SE) 1,229 5.1 -13.3°
